PROBA-V

Last updated on Tue Sep 22 2026 00:03:51 GMT+0000 (Coordinated Universal Time)

1 39159U 13021A 26264.19774912 .00000039 00000+0 35342-4 0 9996 2 39159 98.3716 238.1193 0003591 196.2548 163.8516 14.23613846694774
UTC large
Height (km)
Speed (km/s)
/
Latitude / Longitude
Inclination (degrees)
Orbital Period (minutes)
Azimuth
Elevation
Range (km)
Doppler Factor

Next 0 passes for location: London (51.5072 / 0.1276)

No passes found over London.
PROBA-V